Aeroporto :
LOGIN :

Iscrizione | Disclaimer

   EN    FR    IT 

 










Sommario :    VFR   VFR Marginale   IFR   IFR Intensivo   IFR Molto Intensivo
Visibilità : 
Base nubi : 
>= 8 km
>= 3000ft
5 / 8 km
1000 / 3000 ft
1500m / 5 km
500 / 1000 ft
800 / 1500m
200 / 500 ft
< 800m
< 200 ft
Simboli :   Temporali  Nebbia  Neve Forte  Precipitazioni Forti  Vento > 20 kt
SIGMETs :   Varie  Temporali  Ghiacco  Turbolenza  Onda orograficha  Ceneri Vulcaniche






- Altitudine del aeroporto : 32 ft
- Codice IATA : NRK


ESSP - Norrköping

ULTIMO METAR :
  • 251820Z AUTO 13006KT 9999 NCD 14/06 Q1030

METARs OBSOLETI :
  • 251750Z AUTO 12007KT 9999 NCD 15/07 Q1030
  • 251720Z AUTO 13008KT 9999 NCD 15/07 Q1029
  • 251650Z AUTO 08007KT 9999 FEW068/// 17/07 Q1029
  • 251620Z AUTO 06005KT 9999 NCD 18/05 Q1028
  • 251550Z AUTO 06003KT 350V120 9999 NCD 18/05 Q1028

Previsioni scadute.



MetMap, La meteo Aeronautica in un colpo d'occhio ! - Copyright ORBIFLY Dicembre 2007 - Disclaimer

ORBIFLY MET'MAP TEAM :

Programmazione e sviluppo : Alexandra Zaïnal
Concezione : Baudouin d'Aumeries
Aiuto per la programmazione : Marc-Olivier Méhu
Supporto tecnico e logistico : Manuel Goepfert
Aiuto per la traduzione : Arnaldo La Scala

Contatto : metmap@orbifly.com




FONTI E CREDITI :

   NOAA